Regional Weather Roundup
Issued by NWS

Home | Current Version | Previous Version | Graphics & Text | Print | Product List | Glossary On
Versions: 1 2 3 4 5 6 7 8 9 10 11 12 13 14 15 16 17 18 19 20 21 22 23 24 25 26 27
000
ASUS45 KTFX 210310
RWRMT
MONTANA REGIONAL WEATHER ROUNDUP
NATIONAL WEATHER SERVICE GREAT FALLS MT
900 PM MDT FRI OCT 20 2017

NOTE: "FAIR" INDICATES FEW OR NO CLOUDS BELOW 12000 FEET WITH NO
SIGNIFICANT WEATHER AND/OR OBSTRUCTIONS TO VISIBILITY.

MTZ001>007-043-210400-
WEST OF THE DIVIDE

CITY           SKY/WX    TMP DP  RH WIND       PRES   REMARKS
KALISPELL      PTCLDY    38  32  79 SW6       29.72R
MISSOULA       MOCLDY    38  35  89 CALM      29.79R
BUTTE          CLOUDY    34  28  79 W6        29.77R WCI  29
MULLAN PASS    SNOW      29  27  92 VRB5      29.75R VSB 1/4
DEER LODGE       N/A     39  25  56 W7        29.78R
EUREKA           N/A     45  30  57 MISG      29.70R
HAMILTON         N/A     39  30  70 S9        29.82R
LIBBY            N/A     41  36  81 CALM      29.73R
PLAINS           N/A     41  35  79 CALM      29.81R
$$

MTZ008-052>055-210400-
SOUTHWEST MONTANA

CITY           SKY/WX    TMP DP  RH WIND       PRES   REMARKS
BOZEMAN        CLOUDY    40  31  70 W10       29.74R
DILLON         CLOUDY    36  18  48 W17       29.79R WCI  26
W YELLOWSTONE  CLOUDY    28  25  86 SW9       29.77S WCI  20
ENNIS          CLOUDY    36  27  69 SE5G12    29.82R
THREE FORKS      N/A     43  25  49 W5        29.76R
TWIN BRIDGES     N/A     39  19  45 CALM      29.80R
$$

MTZ009-010-012-014-046-048-049-054-210400-
EAST SLOPES AND CENTRAL MONTANA

CITY           SKY/WX    TMP DP  RH WIND       PRES   REMARKS
CUT BANK       CLOUDY    41  29  62 W21G28    29.54R
GREAT FALLS    CLEAR     39  28  64 SW15      29.57S WCI  31
MALMSTROM AFB  PTCLDY    41  31  68 SW18      29.58R
HELENA         CLOUDY    43  30  60 W32G47    29.66F
BOWMANS CRNR   CLOUDY    40  24  52 SW18      29.60R
CHOTEAU          N/A     45  23  42 W24G33    29.57S
FAIRFIELD      MOCLDY    43  24  46 W18       29.56S
POWER          MOCLDY    40  28  63 W14       29.55R
RAYNESFORD       N/A     41  28  58 SW22G30   29.57R
ULM            MOCLDY    42  28  56 W21G28    29.59R
$$

MTZ011-013-016-021-045-047-050-051-210400-
NORTH CENTRAL MONTANA

CITY           SKY/WX    TMP DP  RH WIND       PRES   REMARKS
HAVRE          CLOUDY    47  36  65 W18G30    29.49R
LEWISTOWN      CLOUDY    41  31  67 W17       29.57R
N BAR RANCH      N/A     41  27  56 NW28G46   29.53R
CHINOOK          N/A     48  36  61 W21G32    29.46R
DENTON         MOCLDY    43  32  65 W12       29.52R
GEYSER         MOCLDY    37  30  74 W8        29.57R WCI  31
GRASS RANGE      N/A     42  31  64 W29G39    29.51R
JUDITH GAP     MOCLDY    41  23  49 NW21G33   29.58R
WINIFRED       MOCLDY    41  36  81 W17       29.54R
$$

MTZ017>020-022>027-061-062-210400-
NORTHEAST MONTANA

CITY           SKY/WX    TMP DP  RH WIND       PRES   REMARKS
GLASGOW        CLOUDY    56  33  42 W30G39    29.33R
JORDAN           N/A     51  37  58 W23G31    29.44R
SIDNEY         CLOUDY    60  35  39 W14       29.18R
WOLF POINT     CLOUDY    59  30  33 W24G35    29.28R
MALTA          CLOUDY    50  37  62 W22G36    29.42R
PLENTYWOOD       N/A     64  30  27 CALM      29.17S
POPLAR           N/A     61  30  31 W18G25    29.24R
SCOBEY           N/A     55  25  31 W5        29.28R
$$

MTZ028>42-056>058-210400-
SOUTHCENTRAL AND SOUTHEAST MONTANA

CITY           SKY/WX    TMP DP  RH WIND       PRES   REMARKS
BAKER          PTCLDY    66  37  34 NW37G51   29.33R HAZE
BILLINGS       CLOUDY    45  31  58 W30G40    29.57R
LIVINGSTON     CLOUDY    40  28  62 W28G40    29.66R
MILES CITY     LGT RAIN  51  51 100 NW15      29.43R
BIG TIMBER     MOCLDY    37  32  81 W15       29.69R WCI  28
EKALAKA          N/A     62  37  39 W23       29.42R
FORSYTH          N/A     52  41  66 W18G24    29.46R
HARLOWTON      MOCLDY    40  25  56 W18       29.62R
LAUREL           N/A     46  28  49 W23G37    29.60R
$$

REGIONAL REPORTS...DAKOTAS

CITY           SKY/WX    TMP DP  RH WIND       PRES   REMARKS
WILLISTON      CLEAR     63  41  45 CALM      29.16S
MINOT          CLEAR     66  48  52 SE14      29.19F
DICKINSON      CLOUDY    62  36  37 SW12      29.19S
BEACH          MOCLDY    63  34  34 W16       29.28R
CROSBY           N/A     54  37  54 SW8       29.18S
TIOGA            N/A     48  36  61 CALM      29.21S
WATFORD CITY     N/A     50  36  57 S5        29.16S
BISMARCK       CLEAR     68  53  58 S22       29.25S
GRAND FORKS    CLOUDY    70  55  59 S21G39    29.37R
FARGO          CLOUDY    70  55  59 S22G40    29.42F
BUFFALO SD       N/A     63  32  31 SW12      29.21S
RAPID CITY     CLEAR     62  38  40 SW8       29.36R
$$

REGIONAL REPORTS...WYOMING/IDAHO/WASHINGTON

CITY           SKY/WX    TMP DP  RH WIND       PRES   REMARKS
GILLETTE       PTCLDY    62  30  29 W21G26    29.46R
SHERIDAN       CLOUDY    51  29  42 N23G41    29.51R
BUFFALO WY     CLOUDY    56  32  40 N21G28    29.50R
CODY           CLOUDY    44  21  40 W20G35    29.62R
YELLOWSTONE LA   N/A     25  22  88 W8        29.77R WCI  16
IDAHO FALLS    CLOUDY    39  27  62 SW18      29.84R WCI  30
SALMON         CLOUDY    39  30  70 S16       29.85R WCI  30
BOISE          MOCLDY    46  32  58 W5        29.95R
SPOKANE        PTCLDY    44  36  73 SW13      29.78R
$$

REGIONAL REPORTS...ALBERTA

CITY           SKY/WX    TMP DP  RH WIND       PRES   REMARKS
EDMONTON       CLOUDY    45  32  61 W7        29.48R
CALGARY        LGT RAIN  37  32  81 NW22G28   29.56  FOG     WCI  27
LETHBRIDGE     CLOUDY    41  39  93 W10       29.55R
MEDICINE HAT   CLOUDY    45  41  87 W20       29.44R
$$

REGIONAL REPORTS...SASKATCHEWAN

CITY           SKY/WX    TMP DP  RH WIND       PRES   REMARKS
SWIFT CURRENT  CLOUDY    50  34  53 W18G24    29.26R
REGINA         CLOUDY    54  32  43 E5        29.15F
SASKATOON      MOCLDY    41  36  81 N13       29.23R
$$




USA.gov is the U.S. government's official web portal to all federal, state and local government web resources and services.